When you browse on this site, cookies collect data to enhance your experience and personalize the content and advertising you see.
Visit our Privacy Policy to learn more. By continuing to use the site, you agree to this use of cookies and data.
  • în România
  • Lista ţărilor
  • Pe 7 zile
  • Temperatura apei
  • Hartă satelitară
  • Meteo pe hartă
  • Widget-uri
  • user-avatar
    Intrare

    Meteo pe oră la Zhitkovo

    Astăzi, 19 Martie, Marţi

    Timp Temperatura Precipitaţii Vânt Presiune Umiditate
    00:00 +2°C° 0.5 mm 3 m/s 744 mmHg 92%
    01:00 +1°C° 0.5 mm 3 m/s 744 mmHg 94%
    02:00 +1°C° 0 mm 3 m/s 744 mmHg 96%
    03:00 +2°C° 0.4 mm 2 m/s 744 mmHg 97%
    04:00 +2°C° 0.4 mm 2 m/s 744 mmHg 97%
    05:00 +3°C° 0.4 mm 1 m/s 744 mmHg 97%
    06:00 +3°C° 0.1 mm 1 m/s 744 mmHg 97%
    07:00 +3°C° 0.1 mm 1 m/s 744 mmHg 96%
    08:00 +4°C° 0 mm 1 m/s 744 mmHg 94%
    09:00 +4°C° 0.1 mm 2 m/s 745 mmHg 91%
    10:00 +4°C° 0.1 mm 2 m/s 745 mmHg 89%
    11:00 +5°C° 0.1 mm 2 m/s 745 mmHg 86%
    12:00 +6°C° 0 mm 2 m/s 745 mmHg 82%
    13:00 +5°C° 0 mm 3 m/s 745 mmHg 79%
    14:00 +7°C° 0 mm 3 m/s 746 mmHg 76%
    15:00 +5°C° 0 mm 3 m/s 746 mmHg 80%
    16:00 +5°C° 0 mm 2 m/s 746 mmHg 83%
    17:00 +4°C° 0 mm 2 m/s 746 mmHg 86%
    18:00 +3°C° 0 mm 2 m/s 746 mmHg 88%
    19:00 +2°C° 0 mm 2 m/s 747 mmHg 89%
    20:00 +1°C° 0 mm 3 m/s 747 mmHg 90%
    21:00 0°C° 0 mm 3 m/s 747 mmHg 91%
    22:00 +1°C° 0 mm 2 m/s 747 mmHg 91%
    23:00 +1°C° 0 mm 2 m/s 747 mmHg 92%

    Mâine, 20 Martie, Miercuri

    Timp Temperatura Precipitaţii Vânt Presiune Umiditate
    00:00 +1°C° 0 mm 2 m/s 747 mmHg 91%
    01:00 -1°C° 0 mm 3 m/s 747 mmHg 91%
    02:00 -1°C° 0 mm 3 m/s 748 mmHg 91%
    03:00 -1°C° 0 mm 3 m/s 748 mmHg 92%
    04:00 -2°C° 0 mm 3 m/s 748 mmHg 92%
    05:00 -2°C° 0 mm 3 m/s 748 mmHg 93%
    06:00 -1°C° 0 mm 3 m/s 748 mmHg 91%
    07:00 -1°C° 0 mm 3 m/s 749 mmHg 88%
    08:00 -1°C° 0 mm 4 m/s 749 mmHg 85%
    09:00 0°C° 0 mm 4 m/s 749 mmHg 82%
    10:00 0°C° 0 mm 4 m/s 749 mmHg 79%
    11:00 +1°C° 0 mm 4 m/s 750 mmHg 75%
    12:00 +1°C° 0.1 mm 4 m/s 750 mmHg 75%
    13:00 +3°C° 0.1 mm 4 m/s 750 mmHg 74%
    14:00 +3°C° 0.1 mm 4 m/s 750 mmHg 74%
    15:00 +1°C° 0.1 mm 4 m/s 750 mmHg 76%
    16:00 +2°C° 0.1 mm 3 m/s 750 mmHg 79%
    17:00 +1°C° 0.1 mm 3 m/s 750 mmHg 82%
    18:00 0°C° 0 mm 3 m/s 750 mmHg 84%
    19:00 -1°C° 0 mm 3 m/s 750 mmHg 87%
    20:00 -2°C° 0 mm 2 m/s 750 mmHg 89%
    21:00 -2°C° 0 mm 3 m/s 750 mmHg 88%
    22:00 -2°C° 0 mm 3 m/s 749 mmHg 88%
    23:00 -2°C° 0 mm 3 m/s 749 mmHg 87%

    Poimâine, 21 Martie, Joi

    Timp Temperatura Precipitaţii Vânt Presiune Umiditate
    00:00 -2°C° 0 mm 3 m/s 748 mmHg 86%
    01:00 -1°C° 0 mm 3 m/s 748 mmHg 86%
    02:00 -1°C° 0 mm 3 m/s 747 mmHg 85%
    03:00 -1°C° 0.4 mm 3 m/s 746 mmHg 87%
    04:00 -1°C° 0.4 mm 3 m/s 746 mmHg 89%
    05:00 -1°C° 0.4 mm 3 m/s 745 mmHg 90%
    06:00 -1°C° 0.4 mm 4 m/s 745 mmHg 88%
    07:00 -1°C° 0.4 mm 4 m/s 746 mmHg 87%
    08:00 0°C° 0.4 mm 4 m/s 746 mmHg 85%
    09:00 0°C° 0 mm 5 m/s 746 mmHg 81%
    10:00 +1°C° 0 mm 5 m/s 746 mmHg 77%
    11:00 +1°C° 0 mm 5 m/s 747 mmHg 73%
    12:00 +1°C° 0 mm 5 m/s 747 mmHg 74%
    13:00 +1°C° 0 mm 5 m/s 747 mmHg 75%
    14:00 +1°C° 0 mm 5 m/s 748 mmHg 76%
    15:00 +1°C° 0 mm 4 m/s 748 mmHg 80%
    16:00 +1°C° 0 mm 3 m/s 748 mmHg 83%
    17:00 +2°C° 0 mm 2 m/s 748 mmHg 86%
    18:00 +1°C° 0 mm 2 m/s 748 mmHg 88%
    19:00 +1°C° 0 mm 2 m/s 748 mmHg 90%
    20:00 +1°C° 0 mm 1 m/s 748 mmHg 92%
    21:00 +1°C° 0 mm 1 m/s 748 mmHg 92%
    22:00 -2°C° 0 mm 2 m/s 748 mmHg 93%
    23:00 -2°C° 0 mm 2 m/s 747 mmHg 93%

    22 Martie, Vineri

    Timp Temperatura Precipitaţii Vânt Presiune Umiditate
    00:00 -2°C° 0 mm 2 m/s 747 mmHg 92%
    01:00 -2°C° 0 mm 2 m/s 746 mmHg 91%
    02:00 -1°C° 0 mm 2 m/s 746 mmHg 91%
    03:00 -1°C° 0.2 mm 3 m/s 745 mmHg 91%
    04:00 0°C° 0.2 mm 3 m/s 744 mmHg 91%
    05:00 0°C° 0.2 mm 4 m/s 743 mmHg 91%
    06:00 0°C° 0.1 mm 5 m/s 743 mmHg 87%
    07:00 +1°C° 0.1 mm 6 m/s 743 mmHg 84%
    08:00 0°C° 0.1 mm 7 m/s 743 mmHg 80%
    09:00 0°C° 0 mm 7 m/s 743 mmHg 73%
    10:00 +2°C° 0 mm 7 m/s 743 mmHg 66%
    11:00 +2°C° 0 mm 7 m/s 744 mmHg 59%
    12:00 +2°C° 0 mm 7 m/s 744 mmHg 60%
    13:00 +2°C° 0 mm 7 m/s 744 mmHg 61%
    14:00 0°C° 0 mm 7 m/s 745 mmHg 62%
    15:00 0°C° 0 mm 7 m/s 745 mmHg 65%
    16:00 -1°C° 0 mm 6 m/s 745 mmHg 68%
    17:00 -2°C° 0 mm 6 m/s 746 mmHg 71%
    18:00 -2°C° 0 mm 6 m/s 746 mmHg 74%
    19:00 -2°C° 0 mm 6 m/s 747 mmHg 76%
    20:00 -1°C° 0 mm 5 m/s 748 mmHg 78%
    21:00 -1°C° 0 mm 5 m/s 748 mmHg 81%
    22:00 -2°C° 0 mm 5 m/s 748 mmHg 83%
    23:00 -2°C° 0 mm 5 m/s 749 mmHg 85%

    23 Martie, Sâmbătă

    Timp Temperatura Precipitaţii Vânt Presiune Umiditate
    00:00 -2°C° 0 mm 4 m/s 749 mmHg 85%
    01:00 -1°C° 0 mm 3 m/s 750 mmHg 85%
    02:00 -1°C° 0 mm 3 m/s 750 mmHg 85%
    03:00 -2°C° 0 mm 2 m/s 750 mmHg 88%
    04:00 -3°C° 0 mm 2 m/s 750 mmHg 92%
    05:00 -3°C° 0 mm 2 m/s 750 mmHg 95%
    06:00 -3°C° 0 mm 2 m/s 751 mmHg 91%
    07:00 -2°C° 0 mm 2 m/s 751 mmHg 87%
    08:00 +1°C° 0 mm 1 m/s 751 mmHg 83%
    09:00 +1°C° 0 mm 2 m/s 750 mmHg 77%
    10:00 +3°C° 0 mm 2 m/s 750 mmHg 71%
    11:00 +4°C° 0 mm 2 m/s 750 mmHg 66%
    12:00 +4°C° 0 mm 2 m/s 749 mmHg 66%
    13:00 +4°C° 0 mm 3 m/s 749 mmHg 66%
    14:00 +4°C° 0 mm 3 m/s 748 mmHg 67%
    15:00 +4°C° 0 mm 3 m/s 747 mmHg 70%
    16:00 +4°C° 0 mm 3 m/s 747 mmHg 74%
    17:00 +4°C° 0 mm 3 m/s 746 mmHg 77%
    18:00 +3°C° 0 mm 3 m/s 746 mmHg 82%
    19:00 +3°C° 0 mm 4 m/s 745 mmHg 87%
    20:00 +3°C° 0 mm 4 m/s 745 mmHg 91%
    21:00 +3°C° 0.1 mm 4 m/s 745 mmHg 91%
    22:00 +4°C° 0.1 mm 4 m/s 744 mmHg 91%
    23:00 +4°C° 0.1 mm 4 m/s 744 mmHg 92%

    24 Martie, Duminică

    Timp Temperatura Precipitaţii Vânt Presiune Umiditate
    00:00 +3°C° 0.1 mm 4 m/s 745 mmHg 89%
    01:00 +1°C° 0.1 mm 5 m/s 745 mmHg 86%
    02:00 0°C° 0.1 mm 5 m/s 746 mmHg 83%
    03:00 -1°C° 0 mm 5 m/s 746 mmHg 81%
    04:00 -2°C° 0 mm 4 m/s 747 mmHg 78%
    05:00 -3°C° 0 mm 4 m/s 747 mmHg 76%
    06:00 -2°C° 0 mm 4 m/s 748 mmHg 73%
    07:00 -2°C° 0 mm 5 m/s 748 mmHg 70%
    08:00 -1°C° 0 mm 5 m/s 748 mmHg 67%
    09:00 0°C° 0 mm 5 m/s 749 mmHg 64%
    10:00 0°C° 0 mm 5 m/s 749 mmHg 60%
    11:00 +1°C° 0 mm 5 m/s 749 mmHg 56%
    12:00 +2°C° 0 mm 5 m/s 749 mmHg 54%
    13:00 +2°C° 0 mm 5 m/s 749 mmHg 52%
    14:00 +2°C° 0 mm 5 m/s 749 mmHg 50%
    15:00 +3°C° 0 mm 4 m/s 749 mmHg 53%
    16:00 +2°C° 0 mm 3 m/s 749 mmHg 57%
    17:00 +3°C° 0 mm 2 m/s 749 mmHg 61%
    18:00 +1°C° 0 mm 2 m/s 749 mmHg 66%
    19:00 +1°C° 0 mm 1 m/s 749 mmHg 71%
    20:00 -1°C° 0 mm 0 m/s 749 mmHg 76%
    21:00 0°C° 0 mm 1 m/s 749 mmHg 75%
    22:00 0°C° 0 mm 1 m/s 748 mmHg 74%
    23:00 0°C° 0 mm 1 m/s 748 mmHg 74%
    Arată mai mult